Back to catalog

USA 404

AliveMilitaryVLEO
NORAD 61025·PAYLOAD·🇺🇸 United States

Launched Sep 6, 2024 from Vandenberg Space Force Base

Loading…

Next Passes (next 24 hours)

TLE

StaleSource: Mike McCants

Epoch: Sep 9, 2026, 19:55 UTC

1 61025U 24160E   26252.83032347 0.00000000  00000-0  00000-0 0    07
2 61025  70.0130 144.3591 0002000 298.5142  61.4858 14.96713300    03

Track USA 404 in real time with AllMySat

Download on the App Store